Location: Krakow
(50.0830°N, 19.9170°E)
Time: 17:07:15
(UTC+02:00)

Courier 1B - Pass Details

Date: 16 March 2026
Orbit: 962 x 1209 km, 28.3° (Epoch: 19 April)

Event Time Altitude Azimuth Distance (km) Brightness Sun altitude
Rises 09:54:11 0° 222° (SW) 3,914 10.8 32.7°
Reaches altitude 10° 10:00:03 10° 186° (S) 2,879 10.8 33.2°
Maximum altitude 10:01:16 11° 175° (S) 2,827 11.0 33.3°
Drops below altitude 10° 10:02:28 10° 165° (SSE) 2,847 11.2 33.4°
Sets 10:08:04 0° 128° (SE) 3,730 11.5 33.9°
